When you browse on this site, cookies collect data to enhance your experience and personalize the content and advertising you see.
Visit our Privacy Policy to learn more. By continuing to use the site, you agree to this use of cookies and data.
  • en France
  • Liste des pays
  • À 7 jours
  • Température de l'eau
  • Carte satellitaire
  • Carte météo
  • Widgets météo
  • user-avatar
    Se connecter

    Météo par heure à Borovets

    Ce jour, 23 Mars, Samedi

    Heure Température Précipitation Vent Pression Humidité
    00:00 +8°C° 0 mm 1 m/s 716 mmHg 69%
    01:00 +7°C° 0 mm 0 m/s 716 mmHg 70%
    02:00 +7°C° 0 mm 1 m/s 716 mmHg 68%
    03:00 +7°C° 0 mm 1 m/s 716 mmHg 68%
    04:00 +6°C° 0 mm 0 m/s 716 mmHg 67%
    05:00 +5°C° 0 mm 0 m/s 716 mmHg 67%
    06:00 +6°C° 0 mm 0 m/s 716 mmHg 64%
    07:00 +7°C° 0 mm 0 m/s 716 mmHg 61%
    08:00 +9°C° 0 mm 1 m/s 716 mmHg 57%
    09:00 +11°C° 0 mm 1 m/s 716 mmHg 51%
    10:00 +13°C° 0 mm 1 m/s 716 mmHg 45%
    11:00 +15°C° 0 mm 1 m/s 716 mmHg 40%
    12:00 +16°C° 0 mm 2 m/s 715 mmHg 38%
    13:00 +17°C° 0 mm 2 m/s 715 mmHg 37%
    14:00 +18°C° 0 mm 3 m/s 715 mmHg 35%
    15:00 +17°C° 0 mm 3 m/s 714 mmHg 37%
    16:00 +17°C° 0 mm 3 m/s 714 mmHg 39%
    17:00 +17°C° 0 mm 3 m/s 714 mmHg 41%
    18:00 +14°C° 0 mm 3 m/s 714 mmHg 47%
    19:00 +13°C° 0 mm 2 m/s 714 mmHg 54%
    20:00 +11°C° 0 mm 1 m/s 714 mmHg 61%
    21:00 +11°C° 0 mm 1 m/s 714 mmHg 64%
    22:00 +10°C° 0 mm 1 m/s 715 mmHg 66%
    23:00 +9°C° 0 mm 1 m/s 715 mmHg 69%

    Demain, 24 Mars, Dimanche

    Heure Température Précipitation Vent Pression Humidité
    00:00 +9°C° 0 mm 1 m/s 715 mmHg 71%
    01:00 +8°C° 0 mm 1 m/s 715 mmHg 74%
    02:00 +8°C° 0 mm 1 m/s 715 mmHg 76%
    03:00 +7°C° 0 mm 1 m/s 715 mmHg 77%
    04:00 +7°C° 0 mm 1 m/s 715 mmHg 78%
    05:00 +6°C° 0 mm 0 m/s 715 mmHg 80%
    06:00 +6°C° 0 mm 0 m/s 715 mmHg 77%
    07:00 +7°C° 0 mm 0 m/s 715 mmHg 75%
    08:00 +8°C° 0 mm 0 m/s 715 mmHg 72%
    09:00 +10°C° 0 mm 1 m/s 715 mmHg 63%
    10:00 +12°C° 0 mm 1 m/s 715 mmHg 54%
    11:00 +14°C° 0 mm 2 m/s 715 mmHg 46%
    12:00 +15°C° 0 mm 2 m/s 715 mmHg 41%
    13:00 +16°C° 0 mm 2 m/s 714 mmHg 36%
    14:00 +17°C° 0 mm 3 m/s 714 mmHg 32%
    15:00 +16°C° 0 mm 2 m/s 714 mmHg 32%
    16:00 +16°C° 0 mm 2 m/s 713 mmHg 32%
    17:00 +16°C° 0 mm 2 m/s 713 mmHg 33%
    18:00 +14°C° 0 mm 2 m/s 712 mmHg 38%
    19:00 +12°C° 0 mm 1 m/s 712 mmHg 43%
    20:00 +11°C° 0 mm 1 m/s 712 mmHg 49%
    21:00 +10°C° 0 mm 1 m/s 712 mmHg 51%
    22:00 +9°C° 0 mm 0 m/s 712 mmHg 53%
    23:00 +8°C° 0 mm 0 m/s 712 mmHg 55%

    Après-demain, 25 Mars, Lundi

    Heure Température Précipitation Vent Pression Humidité
    00:00 +8°C° 0 mm 0 m/s 712 mmHg 56%
    01:00 +8°C° 0 mm 1 m/s 712 mmHg 57%
    02:00 +8°C° 0 mm 1 m/s 711 mmHg 58%
    03:00 +8°C° 0 mm 1 m/s 711 mmHg 58%
    04:00 +7°C° 0 mm 1 m/s 711 mmHg 59%
    05:00 +7°C° 0 mm 1 m/s 710 mmHg 59%
    06:00 +8°C° 0 mm 1 m/s 710 mmHg 56%
    07:00 +9°C° 0 mm 1 m/s 710 mmHg 54%
    08:00 +10°C° 0 mm 1 m/s 710 mmHg 51%
    09:00 +12°C° 0 mm 1 m/s 710 mmHg 45%
    10:00 +14°C° 0 mm 1 m/s 710 mmHg 39%
    11:00 +16°C° 0 mm 2 m/s 710 mmHg 33%
    12:00 +17°C° 0 mm 2 m/s 709 mmHg 30%
    13:00 +18°C° 0 mm 2 m/s 708 mmHg 27%
    14:00 +20°C° 0 mm 2 m/s 708 mmHg 24%
    15:00 +19°C° 0 mm 2 m/s 707 mmHg 25%
    16:00 +19°C° 0 mm 2 m/s 707 mmHg 26%
    17:00 +19°C° 0 mm 2 m/s 706 mmHg 27%
    18:00 +18°C° 0 mm 1 m/s 706 mmHg 33%
    19:00 +15°C° 0 mm 1 m/s 706 mmHg 38%
    20:00 +13°C° 0 mm 1 m/s 706 mmHg 43%
    21:00 +12°C° 0 mm 1 m/s 706 mmHg 46%
    22:00 +12°C° 0 mm 1 m/s 706 mmHg 48%
    23:00 +11°C° 0 mm 1 m/s 706 mmHg 50%

    26 Mars, Mardi

    Heure Température Précipitation Vent Pression Humidité
    00:00 +10°C° 0 mm 1 m/s 706 mmHg 53%
    01:00 +10°C° 0 mm 1 m/s 706 mmHg 55%
    02:00 +9°C° 0 mm 1 m/s 706 mmHg 57%
    03:00 +9°C° 0 mm 1 m/s 706 mmHg 60%
    04:00 +9°C° 0 mm 1 m/s 707 mmHg 62%
    05:00 +8°C° 0 mm 1 m/s 707 mmHg 64%
    06:00 +8°C° 0 mm 2 m/s 707 mmHg 66%
    07:00 +8°C° 0 mm 2 m/s 708 mmHg 69%
    08:00 +8°C° 0 mm 3 m/s 709 mmHg 71%
    09:00 +9°C° 0 mm 3 m/s 709 mmHg 67%
    10:00 +9°C° 0 mm 3 m/s 709 mmHg 64%
    11:00 +10°C° 0 mm 4 m/s 710 mmHg 60%
    12:00 +10°C° 0 mm 4 m/s 710 mmHg 57%
    13:00 +11°C° 0 mm 4 m/s 710 mmHg 54%
    14:00 +11°C° 0 mm 4 m/s 710 mmHg 50%
    15:00 +11°C° 0 mm 4 m/s 710 mmHg 51%
    16:00 +10°C° 0 mm 4 m/s 711 mmHg 52%
    17:00 +10°C° 0 mm 4 m/s 711 mmHg 52%
    18:00 +9°C° 0 mm 3 m/s 711 mmHg 54%
    19:00 +8°C° 0 mm 3 m/s 712 mmHg 55%
    20:00 +7°C° 0 mm 2 m/s 712 mmHg 56%
    21:00 +6°C° 0 mm 2 m/s 713 mmHg 57%
    22:00 +6°C° 0 mm 2 m/s 713 mmHg 58%
    23:00 +6°C° 0 mm 1 m/s 713 mmHg 58%

    27 Mars, Mercredi

    Heure Température Précipitation Vent Pression Humidité
    00:00 +6°C° 0 mm 1 m/s 714 mmHg 59%
    01:00 +6°C° 0 mm 1 m/s 714 mmHg 60%
    02:00 +5°C° 0 mm 1 m/s 714 mmHg 61%
    03:00 +5°C° 0.1 mm 1 m/s 714 mmHg 63%
    04:00 +5°C° 0.1 mm 1 m/s 714 mmHg 64%
    05:00 +5°C° 0.1 mm 1 m/s 714 mmHg 65%
    06:00 +5°C° 0.1 mm 1 m/s 715 mmHg 66%
    07:00 +5°C° 0.1 mm 1 m/s 715 mmHg 67%
    08:00 +5°C° 0.1 mm 1 m/s 715 mmHg 68%
    09:00 +7°C° 0 mm 1 m/s 715 mmHg 65%
    10:00 +7°C° 0 mm 2 m/s 716 mmHg 63%
    11:00 +8°C° 0 mm 2 m/s 716 mmHg 61%
    12:00 +8°C° 0.1 mm 2 m/s 716 mmHg 60%
    13:00 +8°C° 0.1 mm 2 m/s 715 mmHg 59%
    14:00 +9°C° 0.1 mm 3 m/s 715 mmHg 58%
    15:00 +9°C° 0 mm 3 m/s 715 mmHg 59%
    16:00 +9°C° 0 mm 3 m/s 715 mmHg 59%
    17:00 +9°C° 0 mm 3 m/s 715 mmHg 60%
    18:00 +7°C° 0 mm 2 m/s 715 mmHg 66%
    19:00 +6°C° 0 mm 2 m/s 715 mmHg 72%
    20:00 +5°C° 0 mm 2 m/s 716 mmHg 78%
    21:00 +5°C° 0 mm 2 m/s 716 mmHg 81%
    22:00 +5°C° 0 mm 1 m/s 716 mmHg 84%
    23:00 +5°C° 0 mm 1 m/s 716 mmHg 86%

    28 Mars, Jeudi

    Heure Température Précipitation Vent Pression Humidité
    00:00 +4°C° 0 mm 1 m/s 716 mmHg 88%
    01:00 +4°C° 0 mm 1 m/s 716 mmHg 89%
    02:00 +4°C° 0 mm 1 m/s 717 mmHg 90%
    03:00 +4°C° 0 mm 1 m/s 717 mmHg 89%
    04:00 +3°C° 0 mm 2 m/s 717 mmHg 87%
    05:00 +2°C° 0 mm 2 m/s 717 mmHg 85%
    06:00 +3°C° 0 mm 2 m/s 718 mmHg 80%
    07:00 +3°C° 0 mm 2 m/s 718 mmHg 76%
    08:00 +3°C° 0 mm 2 m/s 718 mmHg 71%
    09:00 +3°C° 0 mm 3 m/s 719 mmHg 65%
    10:00 +5°C° 0 mm 3 m/s 719 mmHg 59%
    11:00 +7°C° 0 mm 3 m/s 719 mmHg 53%
    12:00 +6°C° 0 mm 4 m/s 719 mmHg 53%
    13:00 +7°C° 0 mm 4 m/s 719 mmHg 52%
    14:00 +7°C° 0 mm 4 m/s 718 mmHg 52%
    15:00 +7°C° 0 mm 4 m/s 718 mmHg 51%
    16:00 +7°C° 0 mm 4 m/s 718 mmHg 50%
    17:00 +7°C° 0 mm 4 m/s 718 mmHg 49%
    18:00 +5°C° 0 mm 4 m/s 718 mmHg 53%
    19:00 +4°C° 0 mm 3 m/s 718 mmHg 58%
    20:00 +3°C° 0 mm 3 m/s 719 mmHg 63%
    21:00 +3°C° 0 mm 2 m/s 719 mmHg 65%
    22:00 +2°C° 0 mm 2 m/s 719 mmHg 67%
    23:00 +1°C° 0 mm 2 m/s 719 mmHg 69%
    Voir plus